Weather History for Stockton, CA

Change the Weather History Date:

Sunday, April 21, 2013

  Actual Average Record
Temperature  
Mean Temperature 68 °F -  
Max Temperature 88 °F 74 °F 97 °F (2009)
Min Temperature 48 °F 47 °F 34 °F (1963)
Degree Days  
Heating Degree Days 0 5  
Month to date heating degree days 74 149  
Since 1 July heating degree days 2298 2535  
Cooling Degree Days 3 1  
Month to date cooling degree days 8 4  
Year to date cooling degree days 8 4  
Growing Degree Days 18 (Base 50)    
Moisture  
Dew Point 43 °F    
Average Humidity 51    
Maximum Humidity 86    
Minimum Humidity 16    
Precipitation  
Precipitation 0.00 in 0.03 in 0.75 in (1955)
Month to date precipitation 0.41 0.75  
Year to date precipitation 2.77 8.19  
Since 1 July precipitation 9.89 13.22  
Snow  
Snow 0.00 in - - ()
Month to date snowfall 0.0  
Since 1 July snowfall 0.0  
Snow Depth -    
Sea Level Pressure  
Sea Level Pressure 29.96 in    
Wind  
Wind Speed 5 mph (NW)    
Max Wind Speed 48 mph    
Max Gust Speed 83 mph    
Visibility 10 miles    
Events      
T = Trace of Precipitation, MM = Missing Value Source: NWS Daily Summary

Daily Weather History Graph

Daily Weather History Graph

Search for Another Location

Airport:

Trip Planner

Search our weather history database for the weather conditions in past years. The results will help you decide how hot, cold, wet, or windy it might be!

Date:

Astronomy

Apr. 21, 2013 Rise Set
Actual Time 6:20 AM PDT 7:46 PM PDT
Civil Twilight 5:53 AM PDT 8:14 PM PDT
Nautical Twilight 5:20 AM PDT 8:47 PM PDT
Astronomical Twilight 4:45 AM PDT 9:22 PM PDT
Moon 3:41 PM PDT (4/21) 3:41 AM PDT (4/21)
Length of Visible Light 14h 20m
Length of Day
13h 25m
Waxing Gibbous, 81% of the Moon is Illuminated
Apr 21
Waxing Gibbous
Apr 25
Full
May 2
Last Quarter
May 9
New
May 17
First Quarter

Hourly Weather History & Observations

Time (PDT) Temp. Dew Point Humidity Pressure Visibility Wind Dir Wind Speed Gust Speed Precip Events Conditions
12:55 AM 55.0 °F 42.1 °F 62% 29.99 in 10.0 mi Calm Calm - N/A   Clear
1:55 AM 53.1 °F 45.0 °F 74% 29.99 in 10.0 mi NE 3.5 mph - N/A   Clear
2:55 AM 51.1 °F 46.0 °F 83% 29.98 in 10.0 mi NE 4.6 mph - N/A   Clear
3:55 AM 51.1 °F 44.1 °F 77% 29.97 in 10.0 mi Calm Calm - N/A   Clear
4:55 AM 48.9 °F 44.1 °F 83% 29.98 in 10.0 mi West 3.5 mph - N/A   Clear
5:55 AM 48.9 °F 43.0 °F 80% 29.98 in 10.0 mi West 3.5 mph - N/A   Clear
6:55 AM 48.9 °F 45.0 °F 86% 29.99 in 10.0 mi Calm Calm - N/A   Clear
7:55 AM 59.0 °F 46.9 °F 64% 30.01 in 10.0 mi WNW 5.8 mph - N/A   Clear
8:55 AM 63.0 °F 46.0 °F 54% 30.02 in 10.0 mi WNW 6.9 mph - N/A   Clear
9:55 AM 66.9 °F 46.0 °F 47% 30.02 in 10.0 mi NNW 3.5 mph - N/A   Clear
10:55 AM 73.0 °F 46.0 °F 38% 30.03 in 10.0 mi NW 6.9 mph - N/A   Clear
11:55 AM 78.1 °F 44.1 °F 30% 30.01 in 10.0 mi WNW 10.4 mph - N/A   Clear
12:55 PM 81.0 °F 46.0 °F 29% 29.99 in 10.0 mi WNW 9.2 mph - N/A   Clear
1:55 PM 84.0 °F 42.1 °F 23% 29.97 in 10.0 mi WNW 5.8 mph - N/A   Clear
2:55 PM 86.0 °F 41.0 °F 20% 29.95 in 10.0 mi NW 11.5 mph 17.3 mph N/A   Clear
3:55 PM 87.1 °F 36.0 °F 16% 29.94 in 10.0 mi NW 12.7 mph - N/A   Clear
4:55 PM 86.0 °F 37.0 °F 18% 29.92 in 10.0 mi NNW 6.9 mph - N/A   Clear
5:55 PM 86.0 °F 37.0 °F 18% 29.91 in 10.0 mi NW 9.2 mph - N/A   Clear
6:55 PM 82.9 °F 41.0 °F 23% 29.90 in 10.0 mi WNW 10.4 mph - N/A   Clear
7:55 PM 75.9 °F 43.0 °F 31% 29.90 in 10.0 mi NW 5.8 mph - N/A   Clear
8:55 PM 69.1 °F 48.0 °F 47% 29.92 in 10.0 mi NNW 8.1 mph - N/A   Clear
9:55 PM 70.0 °F 46.0 °F 42% 29.94 in 10.0 mi NW 6.9 mph - N/A   Clear
10:55 PM 66.9 °F 42.1 °F 40% 29.94 in 10.0 mi WNW 9.2 mph - N/A   Clear
11:30 PM 62.6 °F 44.6 °F 52% 29.93 in 10.0 mi NW 48.3 mph 82.9 mph N/A   Squalls
11:55 PM 63.0 °F 46.9 °F 56% 29.93 in 10.0 mi WNW 4.6 mph - N/A   Clear